Regional Weather Roundup
Issued by NWS

Home | Current Version | Previous Version | Graphics & Text | Print | Product List | Glossary On
Versions: 1 2 3 4 5 6 7 8 9 10 11 12 13 14 15 16 17 18 19 20 21 22 23 24 25 26 27 28 29 30 31 32 33 34 35 36 37 38 39 40 41 42 43 44 45 46 47 48 49 50
000
ASUS43 KLOT 291758
RWRIL

ILLINOIS REGIONAL WEATHER ROUNDUP
NATIONAL WEATHER SERVICE CHICAGO/ROMEOVILLE IL
1200 PM CST THU JAN 29 2015

NOTE: "FAIR" INDICATES FEW OR NO CLOUDS BELOW 12,000 FEET WITH NO
SIGNIFICANT WEATHER AND/OR OBSTRUCTIONS TO VISIBILITY.

* THESE STATIONS ARE NOT UNDER NWS QUALITY CONTROL. THEY ALSO MAY NOT
  REPORT WEATHER SUCH AS PRECIPITATION OR FOG.

ILZ001-002-007-009-015-016-024-291900-
NORTHWEST ILLINOIS

CITY           SKY/WX    TMP DP  RH WIND       PRES   REMARKS
MOLINE         CLOUDY    36  30  79 NW17G26   30.08R WCI  26
6HR MIN TEMP:  34; 6HR MAX TEMP:  36;

$$

ILZ003-004-008-010-011-017-018-291900-
NORTH CENTRAL ILLINOIS

CITY           SKY/WX    TMP DP  RH WIND       PRES   REMARKS
ROCKFORD       NOT AVBL
$$

ILZ005-006-012>014-019>023-291900-
NORTHEAST ILLINOIS

CITY           SKY/WX    TMP DP  RH WIND       PRES   REMARKS
CHICAGO-OHARE  CLOUDY    33  26  75 NW20G25   29.93R WCI  21
6HR MIN TEMP:  32; 6HR MAX TEMP:  35; 6HR PCP:  0.01;

CHICAGO-MIDWAY NOT AVBL
AURORA         CLOUDY    34  26  72 NW17G26   29.96R HAZE    WCI  23
6HR MIN TEMP:  33; 6HR MAX TEMP:  34;

WAUKEGAN       NOT AVBL
DUPAGE AIRPORT LGT RAIN  33  26  75 NW17      29.95R WCI  22
6HR MIN TEMP:  33; 6HR MAX TEMP:  34; 6HR PCP: TRACE;

WHEELING       CLOUDY    33  25  72 NW14G23   29.95R WCI  23
6HR MIN TEMP:  33; 6HR MAX TEMP:  35; 6HR PCP: TRACE;

NORTHERLY ISL    N/A     34  26  73 NW12        N/A  WCI  25
$$

LMZ740>746-291900-
SOUTHERN LAKE MICHIGAN

STATION/POSITION SKY/WX   TEMP    WIND        PRES    VSBY  WAVE
                          AIR SEA DIR/SP/G                  HT/PER
                          (F)     (DEG/KT/KT) (MB)    (MI)  (FT/S)
WAUKEGAN HARBOR            33     320/ 21/ 31   N/A
HARRISON CRIB              33     330/ 24/ 29   N/A
BURNHAM HARBOR             34     350/ 12/ 17   N/A
CALUMET HARBOR             35     290/ 13/ 20   N/A
MICHIGAN CITY              34     310/ 29/ 32   N/A
$$

ILZ025>027-034>036-040-047-049-050-058-095>099-291900-
WEST-CENTRAL ILLINOIS

CITY           SKY/WX    TMP DP  RH WIND       PRES   REMARKS
$$

ILZ028>032-037-038-041>044-048-051>054-059>061-291900-
CENTRAL ILLINOIS

CITY           SKY/WX    TMP DP  RH WIND       PRES   REMARKS
PEORIA         NOT AVBL
SPRINGFIELD    CLOUDY    38  31  76 NW18G33   30.08R WCI  28
6HR MIN TEMP:  38; 6HR MAX TEMP:  40;

TAYLORVILLE    NOT AVBL
$$

ILZ033-039-045-046-055>057-062-063-291900-
EAST-CENTRAL ILLINOIS

CITY           SKY/WX    TMP DP  RH WIND       PRES   REMARKS
CHAMPAIGN      CLOUDY    35  30  82 NW21      30.00R HAZE    WCI  24
$$

ILZ079-100>102-291900-
SOUTHWEST ILLINOIS

CITY           SKY/WX    TMP DP  RH WIND       PRES   REMARKS
ALTON          CLOUDY    39  30  70 NW15G23   30.13R WCI  31
CAHOKIA*       CLOUDY    42  31  64 NW18G24   30.16R
$$

ILZ064>066-069>071-074>076-080>082-084>086-088>090-092>094-291900-
SOUTH-CENTRAL ILLINOIS

CITY           SKY/WX    TMP DP  RH WIND       PRES   REMARKS
CARBONDALE     CLOUDY    41  31  67 NW15      30.15R
6HR MIN TEMP:  41; 6HR MAX TEMP:  50;

MARION         CLOUDY    43  32  65 NW12G18   30.14R
$$

ILZ067-068-072-073-078-083-087-091-291900-
SOUTHEAST ILLINOIS

CITY           SKY/WX    TMP DP  RH WIND       PRES   REMARKS
$$

ABBREVIATIONS USED IN REMARKS
   TC - TEMPERATURE IN CELSIUS
  WCI - WIND CHILL INDEX
   HX - HEAT INDEX
  VSB - VISIBILITY
$$




USA.gov is the U.S. government's official web portal to all federal, state and local government web resources and services.